Salem, OR

10:31 AM PDT on August 24, 2016 (GMT -0700)
McNary

Weather History for KSLE - December, 2013

Change the Weather History Date:

Friday, December 13, 2013

  Actual Average Record
Temperature  
Mean Temperature 46 °F 40 °F  
Max Temperature 52 °F 46 °F 61 °F (1969)
Min Temperature 39 °F 34 °F -2 °F (1919)
Degree Days  
Heating Degree Days 19 25  
Month to date heating degree days 434 314  
Since 1 July heating degree days 1477 1431  
Cooling Degree Days 0 0  
Month to date cooling degree days 0 0  
Year to date cooling degree days 502 290  
Moisture  
Dew Point 42 °F    
Average Humidity 89    
Maximum Humidity 100    
Minimum Humidity 77    
Precipitation  
Precipitation 0.02 in 0.22 in 2.23 in (2003)
Month to date precipitation 1.00 3.02  
Year to date precipitation 23.32 35.83  
Snow  
Snow 0.00 in - - ()
Month to date snowfall 0.0  
Snow Depth 0.00 in    
Sea Level Pressure  
Sea Level Pressure 30.36 in    
Wind  
Wind Speed 7 mph (South)    
Max Wind Speed 15 mph    
Max Gust Speed 19 mph    
Visibility 7 miles    
Events Fog , Rain    
T = Trace of Precipitation, MM = Missing Value Source: NWS Daily Summary

Daily Weather History Graph

Daily Weather History Graph

Search for Another Location

Airport or City:

Trip Planner

Search our weather history database for the weather conditions in past years. The results will help you decide how hot, cold, wet, or windy it might be!

Date:

Astronomy

Dec. 13, 2013 Rise Set
Actual Time 7:41 AM PST 4:30 PM PST
Civil Twilight 7:08 AM PST 5:04 PM PST
Nautical Twilight 6:31 AM PST 5:41 PM PST
Astronomical Twilight 5:55 AM PST 6:17 PM PST
Moon 2:23 PM PST (12/13) 4:03 AM PST (12/13)
Length of Visible Light 9h 56m
Length of Day
8h 49m
Waxing Gibbous, 88% of the Moon is Illuminated
Dec 13
Waxing Gibbous
Dec 17
Full
Dec 25
Last Quarter
Jan 1
New
Jan 7
First Quarter

Hourly Weather History & Observations

Time (PST) Temp. Windchill Dew Point Humidity Pressure Visibility Wind Dir Wind Speed Gust Speed Precip Events Conditions
12:26 AM 44.1 °F 39.0 °F 42.1 °F 93% 30.22 in 10.0 mi South 9.2 mph - 0.02 in Rain Light Rain
12:56 AM 44.1 °F 38.6 °F 42.1 °F 93% 30.23 in 10.0 mi South 10.4 mph - 0.02 in Rain Light Rain
1:56 AM 43.0 °F 38.2 °F 41.0 °F 93% 30.25 in 10.0 mi SSE 8.1 mph - 0.00 in   Overcast
2:51 AM 44.6 °F 38.1 °F 41.0 °F 87% 30.26 in 9.0 mi South 13.8 mph - N/A   Overcast
2:56 AM 44.1 °F 38.1 °F 41.0 °F 89% 30.27 in 10.0 mi South 11.5 mph - N/A   Overcast
3:33 AM 43.0 °F 38.2 °F 42.1 °F 97% 30.27 in 10.0 mi South 8.1 mph - N/A   Overcast
3:56 AM 44.1 °F 38.6 °F 41.0 °F 89% 30.28 in 10.0 mi South 10.4 mph - N/A   Overcast
4:52 AM 44.6 °F 39.2 °F 41.0 °F 87% 30.28 in 10.0 mi South 10.4 mph - N/A   Overcast
4:56 AM 44.1 °F 39.0 °F 42.1 °F 93% 30.29 in 10.0 mi South 9.2 mph - N/A   Overcast
5:17 AM 44.1 °F 39.5 °F 42.1 °F 93% 30.29 in 10.0 mi South 8.1 mph - N/A   Overcast
5:56 AM 44.1 °F 37.7 °F 42.1 °F 93% 30.31 in 10.0 mi South 12.7 mph - N/A   Overcast
6:56 AM 45.0 °F 41.2 °F 42.1 °F 90% 30.32 in 10.0 mi South 6.9 mph - N/A   Overcast
7:56 AM 44.1 °F 37.7 °F 41.0 °F 89% 30.33 in 10.0 mi South 12.7 mph - N/A   Mostly Cloudy
8:40 AM 45.0 °F 41.8 °F 42.1 °F 90% 30.35 in 10.0 mi South 5.8 mph - N/A   Overcast
8:56 AM 45.0 °F 40.1 °F 42.1 °F 90% 30.36 in 10.0 mi South 9.2 mph - N/A   Overcast
9:56 AM 46.0 °F 41.4 °F 43.0 °F 89% 30.38 in 10.0 mi South 9.2 mph - N/A   Mostly Cloudy
10:56 AM 48.0 °F - 44.1 °F 86% 30.38 in 10.0 mi SSE 9.2 mph - N/A   Overcast
11:56 AM 48.9 °F - 44.1 °F 83% 30.40 in 10.0 mi South 9.2 mph - N/A   Overcast
12:56 PM 50.0 °F - 44.1 °F 80% 30.39 in 10.0 mi South 8.1 mph - N/A   Overcast
1:56 PM 51.1 °F - 45.0 °F 80% 30.40 in 10.0 mi South 6.9 mph - N/A   Overcast
2:54 PM 51.8 °F - 44.6 °F 76% 30.39 in 10.0 mi South 5.8 mph - N/A   Scattered Clouds
2:56 PM 51.1 °F - 44.1 °F 77% 30.40 in 10.0 mi South 5.8 mph - N/A   Scattered Clouds
3:56 PM 50.0 °F - 44.1 °F 80% 30.43 in 10.0 mi WNW 3.5 mph - N/A   Scattered Clouds
4:56 PM 45.0 °F 42.6 °F 42.1 °F 90% 30.42 in 10.0 mi NNW 4.6 mph - N/A   Overcast
5:56 PM 44.1 °F 42.5 °F 41.0 °F 89% 30.40 in 8.0 mi ENE 3.5 mph - N/A   Mostly Cloudy
6:56 PM 41.0 °F 39.0 °F 39.9 °F 96% 30.40 in 4.0 mi WNW 3.5 mph - N/A   Partly Cloudy
7:20 PM 39.9 °F 37.8 °F 39.0 °F 97% 30.41 in 4.0 mi WNW 3.5 mph - N/A   Mostly Cloudy
7:27 PM 41.0 °F 38.0 °F 39.9 °F 96% 30.41 in 2.5 mi WNW 4.6 mph - N/A   Mostly Cloudy
7:30 PM 39.9 °F 35.8 °F 39.0 °F 97% 30.42 in 0.5 mi WNW 5.8 mph - N/A Fog Fog
7:35 PM 39.9 °F 35.8 °F 39.9 °F 100% 30.42 in 0.2 mi NW 5.8 mph - N/A Fog Fog
7:56 PM 41.0 °F 39.0 °F 39.9 °F 96% 30.42 in 0.2 mi North 3.5 mph - N/A Fog Fog
8:56 PM 39.9 °F - 39.9 °F 100% 30.44 in 0.2 mi Calm Calm - N/A Fog Fog
9:56 PM 41.0 °F - 39.9 °F 96% 30.43 in 0.2 mi Calm Calm - N/A Fog Fog
10:56 PM 41.0 °F - 41.0 °F 100% 30.43 in 0.2 mi Calm Calm - N/A Fog Fog
11:56 PM 41.0 °F 38.0 °F 39.9 °F 96% 30.45 in 0.2 mi NW 4.6 mph - N/A Fog Fog